Weather History for Anchorage, AK

Change the Weather History Date:

Saturday, August 3, 2013

  Actual Average Record
Temperature  
Mean Temperature 60 °F 59 °F  
Max Temperature 64 °F 65 °F 76 °F (2002)
Min Temperature 55 °F 52 °F 35 °F (1921)
Degree Days  
Heating Degree Days 5    
Month to date heating degree days 10  
Since 1 June heating degree days 305  
Since 1 July heating degree days 121  
Cooling Degree Days 0    
Month to date cooling degree days 0  
Year to date cooling degree days 21  
Since 1 June cooling degree days 21  
Growing Degree Days 12 (Base 50)    
Moisture  
Dew Point 48 °F    
Average Humidity 66    
Maximum Humidity 80    
Minimum Humidity 52    
Precipitation  
Precipitation T in 0.08 in 0.54 in (1939)
Month to date precipitation T 0.25  
Year to date precipitation 7.94 6.29  
Snow  
Snow 0.00 in 0.00 in 0.00 in ()
Month to date snowfall 0.0 0.0  
Since 1 June snowfall 0.0 0.0  
Since 1 July snowfall 0.0 0.0  
Snow Depth 0.00 in    
Sea Level Pressure  
Sea Level Pressure 29.81 in    
Wind  
Wind Speed 12 mph (SE)    
Max Wind Speed 24 mph    
Max Gust Speed 38 mph    
Visibility 10 miles    
Events Rain    
T = Trace of Precipitation, MM = Missing Value Source: NWS Daily Summary

Daily Weather History Graph

Daily Weather History Graph

Search for Another Location

Airport:

Trip Planner

Search our weather history database for the weather conditions in past years. The results will help you decide how hot, cold, wet, or windy it might be!

Date:

Astronomy

Aug. 03, 2013 Rise Set
Actual Time 5:38 AM AKDT 10:31 PM AKDT
Civil Twilight 4:35 AM AKDT 11:34 PM AKDT
Nautical Twilight 2:38 AM AKDT 1:33 AM AKDT
Astronomical Twilight Sun does not rise Sun does not rise
Moon 2:44 AM AKDT (8/3) 8:27 PM AKDT (8/3)
Length of Visible Light 18h 58m
Length of Day
16h 52m
Waning Crescent, 9% of the Moon is Illuminated
Aug 3
Waning Crescent
Aug 6
New
Aug 14
First Quarter
Aug 20
Full
Aug 28
Last Quarter

Hourly Weather History & Observations

Time (AKDT) Temp. Dew Point Humidity Pressure Visibility Wind Dir Wind Speed Gust Speed Precip Events Conditions
12:53 AM 63.0 °F 48.0 °F 58% 29.78 in 10.0 mi SSE 8.1 mph - N/A   Overcast
1:53 AM 61.0 °F 51.1 °F 70% 29.76 in 10.0 mi SE 5.8 mph - 0.00 in   Overcast
2:53 AM 61.0 °F 51.1 °F 70% 29.78 in 10.0 mi SSE 9.2 mph 17.3 mph 0.00 in Rain Light Rain
3:53 AM 61.0 °F 48.9 °F 64% 29.76 in 10.0 mi Calm Calm - 0.00 in   Overcast
4:53 AM 61.0 °F 48.9 °F 64% 29.78 in 10.0 mi Calm Calm - N/A   Mostly Cloudy
5:53 AM 59.0 °F 48.9 °F 69% 29.79 in 10.0 mi NNE 3.5 mph - N/A   Mostly Cloudy
6:53 AM 57.9 °F 51.1 °F 78% 29.78 in 10.0 mi Calm Calm - N/A   Mostly Cloudy
7:53 AM 63.0 °F 48.0 °F 58% 29.78 in 10.0 mi SE 11.5 mph - N/A   Mostly Cloudy
8:53 AM 63.0 °F 48.0 °F 58% 29.78 in 10.0 mi SSE 15.0 mph 20.7 mph N/A   Mostly Cloudy
9:53 AM 63.0 °F 48.0 °F 58% 29.78 in 10.0 mi SE 17.3 mph 21.9 mph N/A   Mostly Cloudy
10:53 AM 63.0 °F 48.0 °F 58% 29.78 in 10.0 mi SSE 15.0 mph 25.3 mph N/A   Mostly Cloudy
11:53 AM 64.9 °F 46.9 °F 52% 29.78 in 10.0 mi SSE 17.3 mph 27.6 mph N/A   Mostly Cloudy
12:53 PM 63.0 °F 48.9 °F 60% 29.79 in 10.0 mi SSE 24.2 mph 38.0 mph N/A   Mostly Cloudy
1:53 PM 64.9 °F 48.0 °F 54% 29.79 in 10.0 mi SSE 24.2 mph 33.4 mph N/A   Mostly Cloudy
2:53 PM 64.9 °F 48.0 °F 54% 29.81 in 10.0 mi SSE 23.0 mph 33.4 mph N/A   Mostly Cloudy
3:53 PM 64.9 °F 46.9 °F 52% 29.81 in 10.0 mi SSE 24.2 mph 36.8 mph N/A   Mostly Cloudy
4:53 PM 64.9 °F 48.0 °F 54% 29.82 in 10.0 mi SSE 19.6 mph 33.4 mph N/A   Mostly Cloudy
5:53 PM 66.0 °F 48.0 °F 52% 29.83 in 10.0 mi SSE 19.6 mph 29.9 mph N/A   Mostly Cloudy
6:53 PM 64.9 °F 48.0 °F 54% 29.84 in 10.0 mi SE 23.0 mph 33.4 mph N/A   Mostly Cloudy
7:53 PM 64.0 °F 48.0 °F 56% 29.85 in 10.0 mi SSE 20.7 mph 29.9 mph N/A   Mostly Cloudy
8:53 PM 64.0 °F 48.0 °F 56% 29.86 in 10.0 mi SSE 21.9 mph 29.9 mph N/A   Mostly Cloudy
9:53 PM 63.0 °F 48.9 °F 60% 29.87 in 10.0 mi SE 15.0 mph 23.0 mph N/A   Mostly Cloudy
10:53 PM 63.0 °F 48.0 °F 58% 29.88 in 10.0 mi SSE 17.3 mph 26.5 mph N/A   Overcast
11:53 PM 61.0 °F 48.9 °F 64% 29.88 in 10.0 mi SSE 20.7 mph 28.8 mph N/A   Overcast